Weather History for Sisters Island, BC

Change the Weather History Date:

Sunday, January 27, 2013

  Actual Average Record
Temperature  
Mean Temperature 40 °F -  
Max Temperature 42 °F - - ()
Min Temperature 39 °F - - ()
Degree Days  
Heating Degree Days 24    
Moisture  
Dew Point 37 °F    
Average Humidity 85    
Maximum Humidity 89    
Minimum Humidity 72    
Precipitation  
Precipitation 0.00 in - - ()
Sea Level Pressure  
Sea Level Pressure 29.95 in    
Wind  
Wind Speed 9 mph ()    
Max Wind Speed 21 mph    
Max Gust Speed -    
T = Trace of Precipitation, MM = Missing Value Source: Averaged Metar Reports

Daily Weather History Graph

Daily Weather History Graph

Search for Another Location

Airport:

Trip Planner

Search our weather history database for the weather conditions in past years. The results will help you decide how hot, cold, wet, or windy it might be!

Date:

Astronomy

Jan. 27, 2013 Rise Set
Actual Time 7:55 AM PST 5:05 PM PST
Civil Twilight 7:20 AM PST 5:40 PM PST
Nautical Twilight 6:42 AM PST 6:19 PM PST
Astronomical Twilight 6:04 AM PST 6:57 PM PST
Moon 6:16 PM PST (1/27) 7:43 AM PST (1/27)
Length of Visible Light 10h 20m
Length of Day
9h 10m
Full, 100% of the Moon is Illuminated
Jan 27
Full
Feb 3
Last Quarter
Feb 9
New
Feb 17
First Quarter
Feb 25
Full

Hourly Weather History & Observations

Time (PST) Temp. Windchill Dew Point Humidity Pressure Visibility Wind Dir Wind Speed Gust Speed Precip Events Conditions
12:00 AM 40.8 °F - 36.0 °F 83% 29.99 in - Calm Calm - N/A   Unknown
1:00 AM 41.0 °F 37.1 °F 36.5 °F 84% 29.98 in - WSW 5.8 mph - N/A   Unknown
2:00 AM 39.4 °F 37.2 °F 35.6 °F 86% 29.97 in - West 3.5 mph - N/A   Unknown
3:00 AM 40.6 °F 38.6 °F 36.1 °F 84% 29.98 in - WSW 3.5 mph - N/A   Unknown
4:00 AM 41 °F - 35 °F 72% 29.97 in - WSW 15.0 mph - -  
4:00 AM 41.0 °F 33.1 °F 35.1 °F 79% 29.97 in - WSW 15.0 mph - N/A   Unknown
5:00 AM 40.1 °F 35.3 °F 34.9 °F 82% 29.96 in - South 6.9 mph - N/A   Unknown
6:00 AM 39.7 °F 34.9 °F 34.7 °F 82% 29.96 in - South 6.9 mph - N/A   Unknown
7:00 AM 39.6 °F 33.5 °F 36.1 °F 88% 29.96 in - SE 9.2 mph - N/A   Unknown
8:00 AM 40.3 °F 34.9 °F 37.0 °F 88% 29.95 in - ESE 8.1 mph - N/A   Unknown
9:00 AM 41.4 °F 34.3 °F 37.8 °F 87% 29.95 in - SE 12.7 mph - N/A   Unknown
10:00 AM 41 °F - 37 °F 80% 29.94 in - ESE 19.6 mph - -  
10:00 AM 40.8 °F 31.7 °F 36.9 °F 86% 29.94 in - ESE 19.6 mph - N/A   Unknown
11:00 AM 40.6 °F 31.2 °F 37.6 °F 89% 29.95 in - ESE 20.7 mph - N/A   Unknown
12:00 PM 40.8 °F 31.7 °F 37.9 °F 89% 29.94 in - ESE 19.6 mph - N/A   Unknown
1:00 PM 41.5 °F 32.9 °F 38.5 °F 89% 29.92 in - SE 18.4 mph - N/A   Unknown
2:00 PM 41.4 °F 32.4 °F 37.6 °F 86% 29.91 in - ESE 19.6 mph - N/A   Unknown
3:00 PM 41.5 °F 32.9 °F 37.8 °F 86% 29.91 in - ESE 18.4 mph - N/A   Unknown
4:00 PM 42 °F - 38 °F 79% 29.91 in - ESE 15.0 mph - -  
4:00 PM 41.5 °F 33.8 °F 37.8 °F 86% 29.91 in - ESE 15.0 mph - N/A   Unknown
6:00 PM 41.5 °F 35.0 °F 38.5 °F 89% 29.93 in - ESE 11.5 mph - N/A   Unknown
7:00 PM 41.9 °F 35.9 °F 38.5 °F 88% 29.94 in - SE 10.4 mph - N/A   Unknown
8:00 PM 42.3 °F 37.9 °F 38.1 °F 85% 29.94 in - SSW 6.9 mph - N/A   Unknown
9:00 PM 41.2 °F 34.5 °F 37.9 °F 88% 29.95 in - West 11.5 mph - N/A   Unknown
10:00 PM 41 °F - 37 °F 81% 29.96 in - WNW 11.5 mph - -  
10:00 PM 41.4 °F 34.7 °F 37.2 °F 85% 29.96 in - WNW 11.5 mph - N/A   Unknown
11:00 PM 41.4 °F 35.2 °F 37.2 °F 85% 29.97 in - North 10.4 mph - N/A   Unknown